NOAA 16 DEB, 41272

Orbit data source: Space-Track

NOAA 16 DEB, 41272 is space debris in SSO originally from a launch on Thu, 21 Sep 2000 UTC launched from the Air Force Western Test Range (AFWTR). Debris objects in space refer to the collection of defunct objects orbiting the Earth. Examples of debris include non-operational satellites, rocket bodies, and fragments generated from explosions, collisions, or faulty payload assembly.

Loading next visibility...
Identifier
41272, 2000-055FY
Orbit
SSO
Country
Flag of USUS
Related business
Manufacturer
Unknown
Mission
Spacecraft
Bus & Motor
Unknown
Mass
Unknown
Launch date (UTC)
2000-09-21 (25 years ago)
Launch vehicle
Unknown
Launch site
Air Force Western Test Range (AFWTR)
Object type
Payload
Rocket body
Debris
Shape & HBR
Unknown shape, 0.1 m
Radar Cross Section
Small (<0.1 m²)

Expand to show TLE details & history
Last TLE update: 2 days ago

TLE from 2 days ago
0 NOAA 16 DEB
1 41272U 00055FY  26035.41122127  .00004839  00000-0  20626-2 0  9994
2 41272  98.7474 104.2963 0029398 152.7240 207.5491 14.25329888521426
Epoch: 2026-02-04T09:52Z
TLE epoch observation values (Epoch: 2026-02-04T09:52:09.517Z)
Latitude
0.00001°
Longitude
-178.32154°
Altitude
829.05 km
Speed
7.429 km/s
True Right ascension
06h 57m 11s
True Declination
0° 00' 00"
Sunlit
Object was in full shadow at epoch
Visualization orbit readout
Latitude
Unknown
Longitude
Unknown
Altitude
Unknown
Speed
Unknown
Apparent Right ascension
Unknown
Apparent Declination
Unknown
Sunlit
N/A
Visualization observer readout
Local Sidereal Time
13:04:17
Azimuth
Unknown
Elevation
Unknown
Doppler factor
Unknown
Orbital elements
Apogee altitude
825.653 km
Perigee altitude
783.421 km
Semi-major axis
7,182.674 km
Eccentricity
0.00294
Inclination
98.7474°
RAAN
104.2963°
Arg. of periapsis
152.724°
True anomaly
207.3938°
Mean anomaly
207.5491°
Eccentric anomaly
207.4714°
Mean motion
3.56545 °/min
Orbital period
100.97 mins
BSTAR
0.0020626
Loading maneuver chart data...
Computing Atmospheric mass density...
Loading historical data...
Loading historical data...
Loading historical data...
Loading historical data...
Loading historical data...
Loading historical data...
Loading historical data...

Documentation

Showing up to 5 results
|